Date,TemperatureHighF,TemperatureAvgF,TemperatureLowF,DewpointHighF,DewpointAvgF,DewpointLowF,HumidityHigh,HumidityAvg,HumidityLow,PressureMaxIn,PressureMinIn,WindSpeedMaxMPH,WindSpeedAvgMPH,GustSpeedMaxMPH,PrecipitationSumIn
2013-3-1,45.3,39.0,32.5,34.2,30.2,28.7,93,71,55,29.92,29.83,5,2,11,0.00
2013-3-2,68.5,35.6,32.9,32.5,29.5,25.9,93,79,57,29.98,29.86,6,2,11,27.21
2013-3-3,50.4,37.3,28.6,28.5,22.0,17.6,88,57,29,30.01,29.90,7,2,11,0.00
2013-3-4,65.7,49.5,30.7,50.6,32.9,20.6,84,56,32,30.00,29.74,8,2,15,0.00
2013-3-5,69.6,52.2,36.1,63.9,49.7,31.3,99,92,72,29.90,29.56,9,3,15,0.07
2013-3-6,48.0,38.5,32.7,31.3,27.7,23.0,85,65,50,30.10,29.89,8,2,14,0.00
2013-3-7,62.2,43.7,28.8,36.3,32.0,27.7,99,67,36,30.15,30.02,4,1,8,0.00
2013-3-8,72.9,51.2,32.4,37.6,31.1,24.8,99,53,19,30.17,30.01,3,0,6,0.00
2013-3-9,73.2,59.0,45.7,43.2,34.9,25.1,48,41,33,30.07,29.88,5,1,14,0.00
2013-3-10,77.2,65.1,54.0,55.7,47.9,36.3,70,54,42,29.90,29.73,10,3,24,0.00
2013-3-11,63.7,52.6,39.4,56.7,49.5,39.1,99,90,65,29.78,29.64,8,2,16,0.74
2013-3-12,62.8,44.4,33.3,40.4,35.7,32.4,99,76,36,30.00,29.78,6,2,11,0.01
2013-3-13,60.3,47.3,36.3,34.9,28.6,21.9,85,52,27,30.19,29.99,8,2,14,0.00
2013-3-14,62.6,46.0,30.4,29.0,23.5,17.5,76,45,21,30.26,30.07,6,1,13,0.00
2013-3-15,79.2,59.3,39.4,51.8,41.3,27.3,74,53,36,30.09,29.81,6,1,10,0.00
2013-3-16,80.1,64.8,50.4,52.5,48.4,45.0,84,57,36,29.86,29.70,8,2,16,0.00
2013-3-17,73.6,62.9,51.6,62.6,57.4,51.3,99,84,59,29.83,29.67,6,1,10,0.00
2013-3-18,78.8,64.1,55.2,69.4,62.5,54.9,99,95,71,29.72,29.55,8,3,15,0.09
2013-3-19,69.1,56.7,45.1,56.7,40.7,30.1,99,62,25,29.91,29.71,6,2,10,0.02
2013-3-20,64.2,52.8,43.9,36.4,27.3,19.6,59,38,25,29.98,29.78,7,2,11,0.00
2013-3-21,54.0,43.7,33.6,30.3,23.2,14.7,83,48,23,29.90,29.74,5,1,8,0.00
2013-3-22,49.5,44.0,40.1,47.2,40.5,28.3,99,88,55,29.87,29.75,4,1,8,0.09
2013-3-23,63.0,54.0,47.1,61.1,53.6,46.9,99,99,93,29.82,29.42,7,1,11,0.68
2013-3-24,63.1,52.7,42.1,61.5,49.4,31.5,99,89,62,29.67,29.37,9,3,14,0.19
2013-3-25,50.5,40.7,34.2,31.9,26.4,22.8,70,57,39,30.01,29.67,10,3,14,0.00
2013-3-26,44.8,37.6,29.3,28.8,26.7,25.0,86,66,50,30.18,30.00,6,2,11,0.00
2013-3-27,59.9,44.3,29.8,32.2,28.9,25.7,88,58,32,30.24,30.08,5,1,8,0.00
2013-3-28,70.3,52.9,34.5,38.0,33.6,30.1,88,52,28,30.17,30.03,6,1,8,0.00
2013-3-29,75.9,60.1,44.8,49.5,40.1,33.1,68,50,30,30.13,29.94,5,1,9,0.00
2013-3-30,75.0,61.6,50.4,61.8,55.0,47.4,99,81,52,29.99,29.81,4,1,8,0.14
2013-3-31,65.5,59.9,55.2,65.2,59.7,54.9,99,99,99,29.83,29.65,6,1,13,0.27